TimeEDT,TemperatureF,Dew PointF,Humidity,Sea Level PressureIn,VisibilityMPH,Wind Direction,Wind SpeedMPH,Gust SpeedMPH,PrecipitationIn,Events,Conditions,WindDirDegrees,DateUTC
12:15 AM,62.8,56.3,79,30.03,10.0,South,3.5,-,N/A,,Overcast,170,2013-09-30 04:15:00
12:35 AM,62.2,56.3,81,30.03,10.0,South,3.5,-,N/A,,Overcast,170,2013-09-30 04:35:00
12:55 AM,61.9,56.3,82,30.03,10.0,SSE,4.6,-,N/A,,Overcast,160,2013-09-30 04:55:00
1:15 AM,61.7,56.3,82,30.03,10.0,South,3.5,-,N/A,,Overcast,170,2013-09-30 05:15:00
1:35 AM,61.7,56.3,82,30.03,10.0,South,3.5,-,N/A,,Overcast,180,2013-09-30 05:35:00
1:55 AM,61.9,56.3,82,30.03,10.0,SSW,4.6,-,N/A,,Overcast,210,2013-09-30 05:55:00
2:15 AM,62.2,56.3,81,30.03,10.0,SSW,3.5,-,N/A,,Overcast,200,2013-09-30 06:15:00
2:35 AM,61.9,56.3,82,30.02,10.0,South,3.5,-,N/A,,Overcast,190,2013-09-30 06:35:00
2:55 AM,61.7,56.3,82,30.02,10.0,South,3.5,-,N/A,,Overcast,180,2013-09-30 06:55:00
3:15 AM,61.5,56.3,83,30.02,10.0,SSE,3.5,-,N/A,,Overcast,150,2013-09-30 07:15:00
3:35 AM,61.5,56.3,83,30.01,10.0,SSE,3.5,-,N/A,,Overcast,150,2013-09-30 07:35:00
3:55 AM,61.7,56.3,82,30.01,10.0,SE,3.5,-,N/A,,Overcast,140,2013-09-30 07:55:00
4:15 AM,61.7,56.3,82,30.01,10.0,South,3.5,-,N/A,,Overcast,170,2013-09-30 08:15:00
4:35 AM,61.5,56.3,83,30.01,10.0,SSE,4.6,-,N/A,,Overcast,160,2013-09-30 08:35:00
4:55 AM,61.3,56.3,83,30.02,10.0,South,3.5,-,N/A,,Overcast,170,2013-09-30 08:55:00
5:15 AM,61.7,56.3,82,30.01,10.0,Calm,Calm,-,N/A,,Overcast,0,2013-09-30 09:15:00
5:35 AM,61.9,56.3,82,30.01,10.0,SSW,4.6,-,N/A,,Overcast,210,2013-09-30 09:35:00
5:55 AM,62.2,56.5,81,30.01,10.0,SSW,4.6,-,N/A,,Overcast,200,2013-09-30 09:55:00
6:15 AM,61.9,56.3,82,30.02,10.0,SSW,4.6,-,N/A,,Overcast,200,2013-09-30 10:15:00
6:35 AM,61.7,56.5,83,30.02,10.0,SSW,4.6,-,N/A,,Overcast,200,2013-09-30 10:35:00
6:55 AM,61.7,56.5,83,30.02,10.0,South,4.6,-,N/A,,Overcast,190,2013-09-30 10:55:00
7:15 AM,61.7,56.5,83,30.02,10.0,SSW,5.8,-,N/A,,Overcast,200,2013-09-30 11:15:00
7:35 AM,61.9,56.3,82,30.02,10.0,South,5.8,-,N/A,,Overcast,190,2013-09-30 11:35:00
7:55 AM,62.2,56.3,81,30.03,10.0,SSW,6.9,-,N/A,,Overcast,200,2013-09-30 11:55:00
8:15 AM,62.2,56.3,81,30.03,10.0,SSW,5.8,-,N/A,,Overcast,210,2013-09-30 12:15:00
8:35 AM,62.1,56.7,82,30.04,3.0,South,6.9,-,N/A,Rain,Light Rain,190,2013-09-30 12:35:00
8:55 AM,61.5,56.8,85,30.04,7.0,SSW,6.9,-,N/A,Rain,Light Rain,200,2013-09-30 12:55:00
9:15 AM,61.7,56.8,84,30.05,10.0,South,4.6,-,N/A,,Overcast,190,2013-09-30 13:15:00
9:35 AM,61.7,57.2,85,30.05,10.0,SSW,5.8,-,N/A,,Overcast,200,2013-09-30 13:35:00
9:55 AM,61.7,57.2,85,30.05,3.0,SSW,5.8,-,N/A,Rain,Heavy Rain,200,2013-09-30 13:55:00
10:15 AM,61.3,57.2,86,30.05,4.0,SSW,4.6,-,N/A,Rain,Rain,200,2013-09-30 14:15:00
10:35 AM,61.9,57.6,86,30.04,10.0,SSW,5.8,-,N/A,,Overcast,200,2013-09-30 14:35:00
10:55 AM,63.1,57.7,83,30.04,10.0,SSW,6.9,-,N/A,,Overcast,200,2013-09-30 14:55:00
11:15 AM,64.8,58.5,80,30.04,10.0,SSW,5.8,-,N/A,,Overcast,200,2013-09-30 15:15:00
11:35 AM,66.4,59.0,77,30.04,10.0,SW,8.1,-,N/A,,Overcast,220,2013-09-30 15:35:00
11:55 AM,67.6,58.8,73,30.04,10.0,SSW,3.5,-,N/A,,Overcast,210,2013-09-30 15:55:00
12:15 PM,69.1,59.0,70,30.03,10.0,Calm,Calm,-,N/A,,Overcast,0,2013-09-30 16:15:00
12:35 PM,69.6,58.6,68,30.03,10.0,WSW,8.1,-,N/A,,Overcast,240,2013-09-30 16:35:00
12:55 PM,70.7,57.6,63,30.03,10.0,SW,10.4,-,N/A,,Overcast,220,2013-09-30 16:55:00
1:15 PM,72.1,56.8,58,30.02,10.0,WSW,12.7,-,N/A,,Overcast,240,2013-09-30 17:15:00
1:35 PM,73.2,56.8,56,30.01,10.0,West,9.2,-,N/A,,Overcast,260,2013-09-30 17:35:00
1:55 PM,72.1,56.5,58,30.01,10.0,West,9.2,-,N/A,,Overcast,270,2013-09-30 17:55:00
2:15 PM,72.3,56.5,57,30.00,10.0,West,8.1,-,N/A,,Overcast,260,2013-09-30 18:15:00
2:35 PM,73.6,55.4,53,29.99,10.0,West,12.7,16.1,N/A,,Overcast,260,2013-09-30 18:35:00
2:55 PM,73.4,54.9,52,29.98,10.0,WSW,10.4,-,N/A,,Overcast,250,2013-09-30 18:55:00
3:15 PM,73.4,54.7,52,29.98,10.0,WSW,6.9,16.1,N/A,,Overcast,240,2013-09-30 19:15:00
3:35 PM,73.4,54.5,51,29.99,10.0,WSW,8.1,-,N/A,,Overcast,240,2013-09-30 19:35:00
3:55 PM,73.4,55.4,53,29.98,10.0,West,5.8,-,N/A,,Overcast,260,2013-09-30 19:55:00
4:15 PM,73.8,55.4,53,29.98,10.0,West,10.4,-,N/A,,Overcast,270,2013-09-30 20:15:00
4:35 PM,74.7,55.6,51,29.97,10.0,West,8.1,-,N/A,,Mostly Cloudy,260,2013-09-30 20:35:00
4:55 PM,74.8,55.9,52,29.97,10.0,WSW,10.4,-,N/A,,Scattered Clouds,250,2013-09-30 20:55:00
5:15 PM,75.0,55.4,50,29.97,10.0,SW,6.9,-,N/A,,Mostly Cloudy,230,2013-09-30 21:15:00
5:35 PM,75.6,55.0,49,29.97,10.0,WSW,11.5,-,N/A,,Scattered Clouds,240,2013-09-30 21:35:00
5:55 PM,73.4,55.4,53,29.97,10.0,WSW,6.9,-,N/A,,Mostly Cloudy,240,2013-09-30 21:55:00
6:15 PM,72.5,56.3,57,29.98,10.0,WSW,8.1,-,N/A,,Mostly Cloudy,250,2013-09-30 22:15:00
6:35 PM,72.1,55.9,57,29.98,10.0,WSW,4.6,-,N/A,,Mostly Cloudy,250,2013-09-30 22:35:00
6:55 PM,71.6,56.3,58,29.99,10.0,West,4.6,-,N/A,,Overcast,270,2013-09-30 22:55:00
7:15 PM,71.1,56.5,60,29.99,10.0,West,4.6,-,N/A,,Overcast,270,2013-09-30 23:15:00
7:35 PM,70.2,56.7,62,30.00,10.0,West,5.8,-,N/A,,Mostly Cloudy,270,2013-09-30 23:35:00
7:55 PM,69.6,56.8,64,30.00,10.0,Calm,Calm,-,N/A,,Overcast,0,2013-09-30 23:55:00
8:15 PM,68.9,56.8,65,30.01,10.0,Calm,Calm,-,N/A,,Overcast,0,2013-10-01 00:15:00
8:35 PM,68.4,57.0,67,30.01,10.0,Calm,Calm,-,N/A,,Overcast,0,2013-10-01 00:35:00
8:55 PM,68.0,57.2,68,30.01,10.0,Calm,Calm,-,N/A,,Overcast,0,2013-10-01 00:55:00
9:15 PM,66.7,57.2,71,30.01,10.0,Calm,Calm,-,N/A,,Overcast,0,2013-10-01 01:15:00
9:35 PM,65.7,57.6,75,30.01,10.0,Calm,Calm,-,N/A,,Overcast,0,2013-10-01 01:35:00
9:55 PM,64.6,57.9,79,30.01,10.0,SSE,4.6,-,N/A,,Overcast,150,2013-10-01 01:55:00
10:15 PM,63.7,57.2,79,30.02,10.0,SSE,3.5,-,N/A,,Mostly Cloudy,160,2013-10-01 02:15:00
10:35 PM,63.0,56.7,80,30.02,10.0,SSE,4.6,-,N/A,,Scattered Clouds,150,2013-10-01 02:35:00
10:55 PM,61.7,56.1,82,30.02,10.0,Calm,Calm,-,N/A,,Clear,0,2013-10-01 02:55:00
11:15 PM,62.1,56.3,81,30.02,10.0,Calm,Calm,-,N/A,,Scattered Clouds,0,2013-10-01 03:15:00
11:35 PM,62.2,56.3,81,30.02,10.0,Calm,Calm,-,N/A,,Mostly Cloudy,0,2013-10-01 03:35:00
11:55 PM,61.7,56.1,82,30.02,10.0,Calm,Calm,-,N/A,,Scattered Clouds,0,2013-10-01 03:55:00